| time (UTC) | temp C | wind direction | speed KPH | gust KPH | rain 1hr cm | rain 24hr cm | rain mn cm | humidity % | barometer mb |
| 20260905004938 | 18 | 7 | 24.1 | 30.6 | 0.00 | 0.00 | 0.00 | 41 | 1013.0 |
| 20260905004434 | 18 | 333 | 24.1 | 30.6 | 0.00 | 0.00 | 0.00 | 40 | 1013.3 |
| 20260905003928 | 19 | 347 | 20.9 | 33.8 | 0.00 | 0.00 | 0.00 | 40 | 1013.2 |
| 20260905003424 | 18 | 336 | 29.0 | 35.4 | 0.00 | 0.00 | 0.00 | 40 | 1013.5 |
| 20260905002920 | 18 | 331 | 25.7 | 38.6 | 0.00 | 0.00 | 0.00 | 40 | 1013.2 |
| 20260905002419 | 18 | 313 | 14.5 | 29.0 | 0.00 | 0.00 | 0.00 | 40 | 1013.5 |
| 20260905001914 | 18 | 319 | 19.3 | 35.4 | 0.00 | 0.00 | 0.00 | 40 | 1013.2 |
| 20260905001409 | 19 | 324 | 12.9 | 30.6 | 0.00 | 0.00 | 0.00 | 40 | 1013.6 |
| 20260905000904 | 20 | 322 | 22.5 | 30.6 | 0.00 | 0.00 | 0.00 | 39 | 1013.5 |
| 20260905000359 | 20 | 332 | 19.3 | 35.4 | 0.00 | 0.00 | 0.00 | 38 | 1013.1 |
| 20260904235854 | 20 | 339 | 19.3 | 27.4 | 0.00 | 0.00 | 0.00 | 38 | 1013.2 |
| 20260904235349 | 19 | 319 | 17.7 | 33.8 | 0.00 | 0.00 | 0.00 | 39 | 1013.1 |
| 20260904234844 | 19 | 343 | 16.1 | 33.8 | 0.00 | 0.00 | 0.00 | 39 | 1013.3 |
| 20260904234339 | 20 | 311 | 19.3 | 30.6 | 0.00 | 0.00 | 0.00 | 37 | 1013.1 |
| 20260904233835 | 19 | 324 | 9.7 | 27.4 | 0.00 | 0.00 | 0.00 | 39 | 1013.6 |
| 20260904233330 | 19 | 334 | 24.1 | 32.2 | 0.00 | 0.00 | 0.00 | 39 | 1013.2 |
| 20260904232826 | 20 | 323 | 20.9 | 27.4 | 0.00 | 0.00 | 0.00 | 38 | 1013.3 |
| 20260904232322 | 20 | 334 | 17.7 | 35.4 | 0.00 | 0.00 | 0.00 | 38 | 1013.3 |
| 20260904231818 | 20 | 309 | 11.3 | 32.2 | 0.00 | 0.00 | 0.00 | 38 | 1013.1 |
| 20260904231313 | 19 | 316 | 16.1 | 30.6 | 0.00 | 0.00 | 0.00 | 39 | 1013.2 |
| 20260904230808 | 20 | 354 | 12.9 | 29.0 | 0.00 | 0.00 | 0.00 | 38 | 1013.3 |
| 20260904230306 | 20 | 323 | 20.9 | 30.6 | 0.00 | 0.00 | 0.00 | 38 | 1013.0 |
| 20260904225801 | 19 | 300 | 17.7 | 32.2 | 0.00 | 0.00 | 0.00 | 38 | 1013.1 |
| 20260904225255 | 19 | 312 | 17.7 | 38.6 | 0.00 | 0.00 | 0.00 | 38 | 1012.9 |
| 20260904224754 | 20 | 326 | 16.1 | 37.0 | 0.00 | 0.00 | 0.00 | 38 | 1012.9 |
| 20260904224250 | 20 | 308 | 25.7 | 37.0 | 0.00 | 0.00 | 0.00 | 37 | 1012.7 |
| 20260904223749 | 20 | 288 | 22.5 | 37.0 | 0.00 | 0.00 | 0.00 | 37 | 1012.3 |
| 20260904223239 | 21 | 320 | 24.1 | 32.2 | 0.00 | 0.00 | 0.00 | 36 | 1012.6 |
| 20260904222734 | 21 | 320 | 22.5 | 37.0 | 0.00 | 0.00 | 0.00 | 35 | 1012.5 |
| 20260904222224 | 21 | 327 | 33.8 | 45.1 | 0.00 | 0.00 | 0.00 | 35 | 1012.6 |
| 20260904221723 | 21 | 317 | 8.0 | 38.6 | 0.00 | 0.00 | 0.00 | 36 | 1012.5 |
| 20260904221218 | 21 | 321 | 16.1 | 43.5 | 0.00 | 0.00 | 0.00 | 35 | 1012.5 |
| 20260904220713 | 21 | 285 | 32.2 | 40.2 | 0.00 | 0.00 | 0.00 | 36 | 1012.2 |
| 20260904220208 | 21 | 310 | 24.1 | 46.7 | 0.00 | 0.00 | 0.00 | 36 | 1012.3 |
| 20260904215708 | 21 | 296 | 19.3 | 33.8 | 0.00 | 0.00 | 0.00 | 35 | 1012.0 |
| 20260904215204 | 21 | 339 | 20.9 | 43.5 | 0.00 | 0.00 | 0.00 | 36 | 1012.0 |
| 20260904214658 | 21 | 291 | 27.4 | 46.7 | 0.00 | 0.00 | 0.00 | 36 | 1012.0 |
| 20260904214154 | 21 | 334 | 25.7 | 51.5 | 0.00 | 0.00 | 0.00 | 36 | 1011.9 |
| 20260904213652 | 21 | 312 | 17.7 | 38.6 | 0.00 | 0.00 | 0.00 | 36 | 1011.7 |
| 20260904213149 | 21 | 287 | 24.1 | 51.5 | 0.00 | 0.00 | 0.00 | 37 | 1011.4 |
| 20260904212644 | 21 | 316 | 19.3 | 40.2 | 0.00 | 0.00 | 0.00 | 37 | 1011.5 |
| 20260904212144 | 21 | 258 | 32.2 | 37.0 | 0.00 | 0.00 | 0.00 | 37 | 1011.7 |
| 20260904211638 | 21 | 332 | 29.0 | 41.8 | 0.00 | 0.00 | 0.00 | 37 | 1011.1 |
| 20260904211133 | 20 | 313 | 27.4 | 41.8 | 0.00 | 0.00 | 0.00 | 39 | 1011.5 |
| 20260904210627 | 20 | 282 | 12.9 | 35.4 | 0.00 | 0.00 | 0.00 | 40 | 1011.8 |
| 20260904210117 | 20 | 288 | 30.6 | 40.2 | 0.00 | 0.00 | 0.00 | 40 | 1011.4 |
| 20260904205613 | 19 | 273 | 16.1 | 38.6 | 0.00 | 0.00 | 0.00 | 41 | 1011.2 |
| 20260904205109 | 18 | 316 | 22.5 | 41.8 | 0.00 | 0.00 | 0.00 | 41 | 1011.4 |
| 20260904204605 | 18 | 302 | 19.3 | 40.2 | 0.00 | 0.00 | 0.00 | 42 | 1011.2 |
| 20260904204101 | 18 | 310 | 14.5 | 40.2 | 0.00 | 0.00 | 0.00 | 43 | 1011.6 |
| 20260904203556 | 18 | 282 | 20.9 | 43.5 | 0.00 | 0.00 | 0.00 | 42 | 1011.7 |
| 20260904203053 | 18 | 323 | 24.1 | 40.2 | 0.00 | 0.00 | 0.00 | 42 | 1011.4 |
| 20260904202548 | 19 | 293 | 25.7 | 40.2 | 0.00 | 0.00 | 0.00 | 42 | 1011.1 |
| 20260904202044 | 18 | 279 | 32.2 | 41.8 | 0.00 | 0.00 | 0.00 | 42 | 1011.1 |
| 20260904201539 | 18 | 311 | 29.0 | 41.8 | 0.00 | 0.00 | 0.00 | 43 | 1011.0 |
| 20260904201034 | 18 | 309 | 20.9 | 46.7 | 0.00 | 0.00 | 0.00 | 44 | 1010.9 |
| 20260904200533 | 18 | 285 | 22.5 | 43.5 | 0.00 | 0.00 | 0.00 | 44 | 1011.0 |
| 20260904200028 | 18 | 299 | 20.9 | 45.1 | 0.00 | 0.00 | 0.00 | 44 | 1010.8 |
| 20260904195527 | 18 | 314 | 17.7 | 43.5 | 0.00 | 0.00 | 0.00 | 43 | 1010.7 |
| 20260904195026 | 18 | 342 | 8.0 | 35.4 | 0.00 | 0.00 | 0.00 | 43 | 1010.6 |
| 20260904194521 | 18 | 296 | 30.6 | 37.0 | 0.00 | 0.00 | 0.00 | 44 | 1010.6 |
| 20260904194016 | 17 | 306 | 24.1 | 45.1 | 0.00 | 0.00 | 0.00 | 45 | 1010.2 |
| 20260904193516 | 18 | 321 | 24.1 | 40.2 | 0.00 | 0.00 | 0.00 | 44 | 1010.5 |
| 20260904193012 | 18 | 307 | 27.4 | 37.0 | 0.00 | 0.00 | 0.00 | 46 | 1010.4 |
| 20260904192511 | 18 | 292 | 19.3 | 37.0 | 0.00 | 0.00 | 0.00 | 45 | 1010.5 |
| 20260904192008 | 18 | 312 | 25.7 | 35.4 | 0.00 | 0.00 | 0.00 | 45 | 1010.2 |
| 20260904191504 | 18 | 294 | 22.5 | 40.2 | 0.00 | 0.00 | 0.00 | 45 | 1010.1 |
| 20260904191000 | 18 | 319 | 32.2 | 37.0 | 0.00 | 0.00 | 0.00 | 45 | 1010.1 |
| 20260904190455 | 18 | 297 | 20.9 | 38.6 | 0.00 | 0.00 | 0.00 | 45 | 1010.1 |
| 20260904185951 | 18 | 303 | 11.3 | 33.8 | 0.00 | 0.00 | 0.00 | 46 | 1010.0 |
| 20260904185447 | 18 | 288 | 11.3 | 33.8 | 0.00 | 0.00 | 0.00 | 45 | 1009.9 |
| 20260904184942 | 17 | 311 | 25.7 | 38.6 | 0.00 | 0.00 | 0.00 | 47 | 1009.9 |
| 20260904184436 | 17 | 282 | 29.0 | 33.8 | 0.00 | 0.00 | 0.00 | 48 | 1010.0 |
| 20260904183932 | 17 | 297 | 25.7 | 37.0 | 0.00 | 0.00 | 0.00 | 48 | 1009.6 |
| 20260904183427 | 17 | 310 | 27.4 | 27.4 | 0.00 | 0.00 | 0.00 | 48 | 1009.8 |
| 20260904182922 | 17 | 340 | 16.1 | 29.0 | 0.00 | 0.00 | 0.00 | 48 | 1009.8 |
| 20260904182418 | 17 | 297 | 19.3 | 29.0 | 0.00 | 0.00 | 0.00 | 49 | 1009.8 |
| 20260904181912 | 17 | 296 | 20.9 | 33.8 | 0.00 | 0.00 | 0.00 | 49 | 1009.8 |
| 20260904181408 | 16 | 303 | 19.3 | 30.6 | 0.00 | 0.00 | 0.00 | 50 | 1010.0 |
| 20260904180903 | 16 | 295 | 24.1 | 33.8 | 0.00 | 0.00 | 0.00 | 50 | 1009.9 |
| 20260904180358 | 16 | 319 | 20.9 | 33.8 | 0.00 | 0.00 | 0.00 | 50 | 1009.5 |
| 20260904175857 | 16 | 303 | 17.7 | 30.6 | 0.00 | 0.00 | 0.00 | 50 | 1009.6 |
| 20260904175356 | 17 | 316 | 17.7 | 35.4 | 0.00 | 0.00 | 0.00 | 49 | 1009.8 |
| 20260904174850 | 17 | 307 | 19.3 | 40.2 | 0.00 | 0.00 | 0.00 | 49 | 1009.9 |
| 20260904174347 | 16 | 321 | 14.5 | 29.0 | 0.00 | 0.00 | 0.00 | 50 | 1009.7 |
| 20260904173843 | 16 | 321 | 25.7 | 30.6 | 0.00 | 0.00 | 0.00 | 50 | 1009.4 |
| 20260904173338 | 16 | 323 | 22.5 | 33.8 | 0.00 | 0.00 | 0.00 | 51 | 1009.4 |
| 20260904172834 | 17 | 327 | 20.9 | 25.7 | 0.00 | 0.00 | 0.00 | 48 | 1009.5 |
| 20260904172333 | 16 | 312 | 20.9 | 32.2 | 0.00 | 0.00 | 0.00 | 50 | 1009.3 |
| 20260904171828 | 17 | 326 | 25.7 | 33.8 | 0.00 | 0.00 | 0.00 | 50 | 1009.3 |
| 20260904171323 | 17 | 331 | 19.3 | 29.0 | 0.00 | 0.00 | 0.00 | 50 | 1009.5 |
| 20260904170819 | 17 | 317 | 6.4 | 25.7 | 0.00 | 0.00 | 0.00 | 49 | 1009.3 |
| 20260904170314 | 18 | 352 | 11.3 | 14.5 | 0.00 | 0.00 | 0.00 | 46 | 1009.1 |
| 20260904165808 | 18 | 35 | 4.8 | 19.3 | 0.00 | 0.00 | 0.00 | 46 | 1008.9 |
| 20260904165305 | 18 | 3 | 17.7 | 20.9 | 0.00 | 0.00 | 0.00 | 48 | 1009.1 |
| 20260904164756 | 19 | 29 | 8.0 | 17.7 | 0.00 | 0.00 | 0.00 | 44 | 1008.8 |
| 20260904164252 | 18 | 356 | 4.8 | 12.9 | 0.00 | 0.00 | 0.00 | 43 | 1009.0 |
| 20260904163748 | 18 | 15 | 8.0 | 11.3 | 0.00 | 0.00 | 0.00 | 43 | 1008.9 |
| 20260904163243 | 18 | 36 | 3.2 | 9.7 | 0.00 | 0.00 | 0.00 | 44 | 1008.8 |
| 20260904162742 | 18 | 25 | 4.8 | 11.3 | 0.00 | 0.00 | 0.00 | 45 | 1008.9 |
| 20260904162237 | 18 | 355 | 8.0 | 9.7 | 0.00 | 0.00 | 0.00 | 45 | 1009.0 |
| 20260904161733 | 17 | 343 | 3.2 | 9.7 | 0.00 | 0.00 | 0.00 | 45 | 1008.9 |
| 20260904161232 | 17 | 328 | 3.2 | 6.4 | 0.00 | 0.00 | 0.00 | 45 | 1009.0 |
| 20260904160727 | 17 | 303 | 4.8 | 4.8 | 0.00 | 0.00 | 0.00 | 45 | 1008.9 |
| 20260904160223 | 18 | 75 | 1.6 | 3.2 | 0.00 | 0.00 | 0.00 | 45 | 1008.8 |
| 20260904155718 | 17 | 46 | 3.2 | 3.2 | 0.00 | 0.00 | 0.00 | 46 | 1008.6 |
| 20260904155217 | 17 | 52 | 6.4 | 8.0 | 0.00 | 0.00 | 0.00 | 47 | 1008.4 |
| 20260904154716 | 17 | 74 | 11.3 | 11.3 | 0.00 | 0.00 | 0.00 | 47 | 1008.0 |
| 20260904154211 | 17 | 89 | 11.3 | 12.9 | 0.00 | 0.00 | 0.00 | 47 | 1008.0 |
| 20260904153706 | 16 | 73 | 9.7 | 14.5 | 0.00 | 0.00 | 0.00 | 47 | 1007.8 |
| 20260904153201 | 16 | 62 | 8.0 | 11.3 | 0.00 | 0.00 | 0.00 | 50 | 1007.7 |
| 20260904152658 | 16 | 53 | 8.0 | 9.7 | 0.00 | 0.00 | 0.00 | 48 | 1007.8 |
| 20260904152153 | 16 | 65 | 8.0 | 12.9 | 0.00 | 0.00 | 0.00 | 49 | 1007.8 |
| 20260904151648 | 16 | 49 | 11.3 | 14.5 | 0.00 | 0.00 | 0.00 | 48 | 1008.0 |
| 20260904151146 | 16 | 44 | 11.3 | 11.3 | 0.00 | 0.00 | 0.00 | 48 | 1007.9 |
| 20260904150643 | 16 | 51 | 8.0 | 11.3 | 0.00 | 0.00 | 0.00 | 50 | 1007.9 |
| 20260904150138 | 16 | 55 | 6.4 | 9.7 | 0.00 | 0.00 | 0.00 | 49 | 1008.0 |
| 20260904145636 | 16 | 42 | 12.9 | 16.1 | 0.00 | 0.00 | 0.00 | 51 | 1008.0 |
| 20260904145131 | 16 | 79 | 3.2 | 8.0 | 0.00 | 0.00 | 0.00 | 49 | 1007.9 |
| 20260904144627 | 16 | 55 | 9.7 | 11.3 | 0.00 | 0.00 | 0.00 | 49 | 1007.9 |
| 20260904144123 | 16 | 43 | 6.4 | 9.7 | 0.00 | 0.00 | 0.00 | 48 | 1008.0 |
| 20260904143619 | 16 | 88 | 6.4 | 8.0 | 0.00 | 0.00 | 0.00 | 49 | 1007.8 |
| 20260904143115 | 15 | 37 | 3.2 | 3.2 | 0.00 | 0.00 | 0.00 | 52 | 1007.9 |
| 20260904142611 | 15 | 334 | 3.2 | 8.0 | 0.00 | 0.00 | 0.00 | 54 | 1008.1 |
| 20260904142106 | 14 | 264 | 6.4 | 8.0 | 0.00 | 0.00 | 0.00 | 54 | 1008.1 |
| 20260904141601 | 14 | 51 | 11.3 | 14.5 | 0.00 | 0.00 | 0.00 | 54 | 1008.0 |
| 20260904141056 | 14 | 62 | 6.4 | 14.5 | 0.00 | 0.00 | 0.00 | 57 | 1007.7 |
| 20260904140551 | 13 | 24 | 4.8 | 6.4 | 0.00 | 0.00 | 0.00 | 55 | 1007.9 |
| 20260904140045 | 13 | 352 | 3.2 | 6.4 | 0.00 | 0.00 | 0.00 | 57 | 1007.9 |
| 20260904135544 | 13 | 285 | 6.4 | 8.0 | 0.00 | 0.00 | 0.00 | 58 | 1008.3 |
| 20260904135035 | 12 | 51 | 6.4 | 9.7 | 0.00 | 0.00 | 0.00 | 59 | 1007.7 |
| 20260904134530 | 12 | 42 | 3.2 | 3.2 | 0.00 | 0.00 | 0.00 | 61 | 1008.0 |
| 20260904134024 | 12 | 278 | 1.6 | 4.8 | 0.00 | 0.00 | 0.00 | 62 | 1008.1 |
| 20260904133520 | 12 | 285 | 1.6 | 4.8 | 0.00 | 0.00 | 0.00 | 60 | 1008.0 |
| 20260904133016 | 11 | 246 | 1.6 | 4.8 | 0.00 | 0.00 | 0.00 | 63 | 1008.1 |
| 20260904132515 | 11 | 285 | 1.6 | 4.8 | 0.00 | 0.00 | 0.00 | 62 | 1008.0 |
| 20260904132010 | 11 | 297 | 3.2 | 4.8 | 0.00 | 0.00 | 0.00 | 62 | 1008.0 |
| 20260904131505 | 10 | 320 | 3.2 | 4.8 | 0.00 | 0.00 | 0.00 | 64 | 1007.9 |
| 20260904131001 | 10 | 304 | 3.2 | 4.8 | 0.00 | 0.00 | 0.00 | 66 | 1007.9 |
| 20260904130500 | 10 | 298 | 6.4 | 8.0 | 0.00 | 0.00 | 0.00 | 66 | 1007.8 |
| 20260904125954 | 10 | 320 | 3.2 | 8.0 | 0.00 | 0.00 | 0.00 | 66 | 1008.0 |
| 20260904125450 | 10 | 293 | 6.4 | 8.0 | 0.00 | 0.00 | 0.00 | 65 | 1007.6 |
| 20260904124949 | 10 | 300 | 4.8 | 6.4 | 0.00 | 0.00 | 0.00 | 64 | 1007.6 |
| 20260904124446 | 11 | 332 | 3.2 | 8.0 | 0.00 | 0.00 | 0.00 | 63 | 1007.6 |
| 20260904123942 | 11 | 343 | 4.8 | 6.4 | 0.00 | 0.00 | 0.00 | 62 | 1007.7 |
| 20260904123436 | 11 | 346 | 6.4 | 8.0 | 0.00 | 0.00 | 0.00 | 60 | 1007.7 |
| 20260904122931 | 11 | 351 | 4.8 | 6.4 | 0.00 | 0.00 | 0.00 | 60 | 1007.9 |
| 20260904122425 | 11 | 325 | 6.4 | 8.0 | 0.00 | 0.00 | 0.00 | 60 | 1007.8 |
| 20260904121920 | 11 | 327 | 4.8 | 8.0 | 0.00 | 0.00 | 0.00 | 59 | 1007.9 |
| 20260904121417 | 12 | 325 | 6.4 | 8.0 | 0.00 | 0.00 | 0.00 | 57 | 1007.6 |
| 20260904120913 | 12 | 328 | 4.8 | 6.4 | 0.00 | 0.00 | 0.00 | 57 | 1007.9 |
| 20260904120408 | 11 | 310 | 4.8 | 4.8 | 0.00 | 0.00 | 0.00 | 60 | 1008.0 |
| 20260904115903 | 12 | 283 | 4.8 | 4.8 | 0.00 | 0.00 | 0.00 | 57 | 1008.0 |
| 20260904115358 | 12 | 313 | 4.8 | 4.8 | 0.00 | 0.00 | 0.00 | 56 | 1007.7 |
| 20260904114853 | 12 | 306 | 3.2 | 4.8 | 0.00 | 0.00 | 0.00 | 56 | 1008.1 |
| 20260904114348 | 12 | 279 | 4.8 | 6.4 | 0.00 | 0.00 | 0.00 | 56 | 1007.8 |
| 20260904113843 | 12 | 8 | 4.8 | 8.0 | 0.00 | 0.00 | 0.00 | 55 | 1007.9 |
| 20260904113343 | 13 | 355 | 3.2 | 4.8 | 0.00 | 0.00 | 0.00 | 54 | 1007.8 |
| 20260904112837 | 13 | 24 | 8.0 | 9.7 | 0.00 | 0.00 | 0.00 | 54 | 1007.7 |
| 20260904112333 | 13 | 44 | 4.8 | 8.0 | 0.00 | 0.00 | 0.00 | 53 | 1007.8 |
| 20260904111828 | 13 | 58 | 3.2 | 4.8 | 0.00 | 0.00 | 0.00 | 53 | 1008.0 |
| 20260904111324 | 13 | 32 | 3.2 | 8.0 | 0.00 | 0.00 | 0.00 | 53 | 1008.0 |
| 20260904110820 | 13 | 46 | 9.7 | 9.7 | 0.00 | 0.00 | 0.00 | 53 | 1007.8 |
| 20260904110319 | 13 | 47 | 4.8 | 4.8 | 0.00 | 0.00 | 0.00 | 52 | 1007.7 |
| 20260904105813 | 13 | 30 | 1.6 | 4.8 | 0.00 | 0.00 | 0.00 | 53 | 1008.0 |
| 20260904105308 | 13 | 322 | 0.0 | 3.2 | 0.00 | 0.00 | 0.00 | 53 | 1007.9 |
| 20260904104803 | 13 | 242 | 0.0 | 3.2 | 0.00 | 0.00 | 0.00 | 55 | 1007.8 |
| 20260904104259 | 12 | 257 | 0.0 | 6.4 | 0.00 | 0.00 | 0.00 | 56 | 1008.0 |
| 20260904103756 | 12 | 260 | 4.8 | 6.4 | 0.00 | 0.00 | 0.00 | 55 | 1008.5 |
| 20260904103255 | 11 | 272 | 6.4 | 6.4 | 0.00 | 0.00 | 0.00 | 58 | 1008.4 |
| 20260904102750 | 12 | 273 | 4.8 | 6.4 | 0.00 | 0.00 | 0.00 | 57 | 1008.4 |
| 20260904102246 | 11 | 261 | 6.4 | 6.4 | 0.00 | 0.00 | 0.00 | 58 | 1008.1 |
| 20260904101742 | 13 | 251 | 3.2 | 6.4 | 0.00 | 0.00 | 0.00 | 54 | 1008.4 |
| 20260904101238 | 13 | 243 | 4.8 | 6.4 | 0.00 | 0.00 | 0.00 | 54 | 1008.8 |
| 20260904100734 | 13 | 230 | 3.2 | 3.2 | 0.00 | 0.00 | 0.00 | 54 | 1008.6 |
| 20260904100230 | 12 | 237 | 0.0 | 3.2 | 0.00 | 0.00 | 0.00 | 54 | 1008.6 |
| 20260904095729 | 12 | 251 | 3.2 | 3.2 | 0.00 | 0.00 | 0.00 | 56 | 1008.4 |
| 20260904095224 | 12 | 224 | 0.0 | 6.4 | 0.00 | 0.00 | 0.00 | 54 | 1008.8 |
| 20260904094719 | 13 | 221 | 0.0 | 1.6 | 0.00 | 0.00 | 0.00 | 53 | 1008.6 |
| 20260904094219 | 13 | 148 | 0.0 | 4.8 | 0.00 | 0.00 | 0.00 | 52 | 1008.9 |
| 20260904093716 | 13 | 267 | 3.2 | 4.8 | 0.00 | 0.00 | 0.00 | 53 | 1008.7 |
| 20260904093215 | 12 | 267 | 3.2 | 4.8 | 0.00 | 0.00 | 0.00 | 54 | 1008.9 |
| 20260904092711 | 12 | 259 | 3.2 | 6.4 | 0.00 | 0.00 | 0.00 | 55 | 1008.8 |
| 20260904092207 | 12 | 246 | 3.2 | 6.4 | 0.00 | 0.00 | 0.00 | 55 | 1008.9 |
| 20260904091703 | 12 | 250 | 4.8 | 4.8 | 0.00 | 0.00 | 0.00 | 56 | 1009.0 |
| 20260904091158 | 12 | 221 | 1.6 | 3.2 | 0.00 | 0.00 | 0.00 | 56 | 1009.1 |
| 20260904090653 | 12 | 258 | 3.2 | 3.2 | 0.00 | 0.00 | 0.00 | 55 | 1008.9 |
| 20260904090149 | 13 | 242 | 3.2 | 4.8 | 0.00 | 0.00 | 0.00 | 54 | 1009.1 |
| 20260904085644 | 13 | 243 | 3.2 | 4.8 | 0.00 | 0.00 | 0.00 | 54 | 1009.0 |
| 20260904085143 | 13 | 190 | 0.0 | 3.2 | 0.00 | 0.00 | 0.00 | 54 | 1009.3 |
| 20260904084638 | 13 | 324 | 1.6 | 4.8 | 0.00 | 0.00 | 0.00 | 52 | 1009.3 |
| 20260904084135 | 14 | 295 | 1.6 | 3.2 | 0.00 | 0.00 | 0.00 | 51 | 1009.1 |
| 20260904083631 | 13 | 306 | 3.2 | 4.8 | 0.00 | 0.00 | 0.00 | 53 | 1009.1 |
| 20260904083127 | 13 | 314 | 3.2 | 4.8 | 0.00 | 0.00 | 0.00 | 52 | 1009.3 |
| 20260904082621 | 14 | 39 | 1.6 | 3.2 | 0.00 | 0.00 | 0.00 | 51 | 1008.9 |
| 20260904082117 | 14 | 17 | 1.6 | 3.2 | 0.00 | 0.00 | 0.00 | 51 | 1009.3 |
| 20260904081612 | 14 | 344 | 4.8 | 4.8 | 0.00 | 0.00 | 0.00 | 50 | 1009.4 |
| 20260904081107 | 14 | 11 | 3.2 | 4.8 | 0.00 | 0.00 | 0.00 | 50 | 1009.5 |
| 20260904080603 | 14 | 307 | 1.6 | 3.2 | 0.00 | 0.00 | 0.00 | 51 | 1009.3 |
| 20260904080059 | 14 | 346 | 1.6 | 4.8 | 0.00 | 0.00 | 0.00 | 50 | 1009.1 |
| 20260904075555 | 12 | 298 | 3.2 | 6.4 | 0.00 | 0.00 | 0.00 | 54 | 1009.6 |
| 20260904075050 | 14 | 276 | 3.2 | 3.2 | 0.00 | 0.00 | 0.00 | 51 | 1009.4 |
| 20260904074549 | 14 | 294 | 3.2 | 4.8 | 0.00 | 0.00 | 0.00 | 50 | 1009.5 |
| 20260904074044 | 14 | 317 | 3.2 | 4.8 | 0.00 | 0.00 | 0.00 | 50 | 1009.7 |
| 20260904073539 | 14 | 288 | 3.2 | 6.4 | 0.00 | 0.00 | 0.00 | 51 | 1009.4 |
| 20260904073035 | 13 | 305 | 3.2 | 4.8 | 0.00 | 0.00 | 0.00 | 52 | 1009.4 |
| 20260904072531 | 15 | 294 | 3.2 | 4.8 | 0.00 | 0.00 | 0.00 | 51 | 1009.5 |
| 20260904072026 | 15 | 337 | 3.2 | 4.8 | 0.00 | 0.00 | 0.00 | 50 | 1009.4 |
| 20260904071522 | 14 | 314 | 4.8 | 4.8 | 0.00 | 0.00 | 0.00 | 52 | 1009.4 |
| 20260904071016 | 14 | 289 | 3.2 | 6.4 | 0.00 | 0.00 | 0.00 | 52 | 1009.5 |
| 20260904070515 | 15 | 309 | 3.2 | 4.8 | 0.00 | 0.00 | 0.00 | 51 | 1009.7 |
| 20260904070009 | 15 | 302 | 3.2 | 4.8 | 0.00 | 0.00 | 0.00 | 50 | 1009.6 |
| 20260904065504 | 13 | 289 | 3.2 | 3.2 | 0.00 | 0.00 | 0.00 | 53 | 1009.6 |
| 20260904065000 | 14 | 278 | 3.2 | 3.2 | 0.00 | 0.00 | 0.00 | 52 | 1009.7 |
| 20260904064456 | 14 | 247 | 3.2 | 4.8 | 0.00 | 0.00 | 0.00 | 51 | 1009.5 |
| 20260904063951 | 14 | 268 | 4.8 | 6.4 | 0.00 | 0.00 | 0.00 | 52 | 1009.4 |
| 20260904063448 | 14 | 272 | 6.4 | 9.7 | 0.00 | 0.00 | 0.00 | 52 | 1009.4 |
| 20260904062943 | 13 | 256 | 6.4 | 8.0 | 0.00 | 0.00 | 0.00 | 53 | 1009.5 |
| 20260904062439 | 13 | 265 | 8.0 | 9.7 | 0.00 | 0.00 | 0.00 | 54 | 1009.6 |
| 20260904061934 | 13 | 288 | 6.4 | 6.4 | 0.00 | 0.00 | 0.00 | 56 | 1009.7 |
| 20260904061431 | 12 | 268 | 4.8 | 8.0 | 0.00 | 0.00 | 0.00 | 58 | 1009.7 |
| 20260904060926 | 13 | 273 | 4.8 | 8.0 | 0.00 | 0.00 | 0.00 | 56 | 1009.5 |
| 20260904060422 | 13 | 260 | 6.4 | 8.0 | 0.00 | 0.00 | 0.00 | 56 | 1009.7 |
| 20260904055917 | 14 | 267 | 4.8 | 8.0 | 0.00 | 0.00 | 0.00 | 53 | 1009.7 |
| 20260904055413 | 14 | 258 | 6.4 | 9.7 | 0.00 | 0.00 | 0.00 | 52 | 1009.7 |
| 20260904054908 | 14 | 252 | 6.4 | 9.7 | 0.00 | 0.00 | 0.00 | 52 | 1010.0 |
| 20260904054404 | 13 | 236 | 3.2 | 6.4 | 0.00 | 0.00 | 0.00 | 54 | 1009.8 |
| 20260904053900 | 14 | 214 | 3.2 | 6.4 | 0.00 | 0.00 | 0.00 | 53 | 1009.9 |
| 20260904053358 | 15 | 208 | 3.2 | 4.8 | 0.00 | 0.00 | 0.00 | 51 | 1009.8 |
| 20260904052854 | 15 | 202 | 3.2 | 6.4 | 0.00 | 0.00 | 0.00 | 50 | 1010.1 |
| 20260904052350 | 14 | 218 | 3.2 | 8.0 | 0.00 | 0.00 | 0.00 | 53 | 1010.4 |
| 20260904051846 | 15 | 189 | 3.2 | 4.8 | 0.00 | 0.00 | 0.00 | 51 | 1010.1 |
| 20260904051342 | 15 | 183 | 3.2 | 4.8 | 0.00 | 0.00 | 0.00 | 49 | 1010.5 |
| 20260904050836 | 15 | 253 | 6.4 | 9.7 | 0.00 | 0.00 | 0.00 | 50 | 1009.9 |
| 20260904050333 | 15 | 261 | 6.4 | 8.0 | 0.00 | 0.00 | 0.00 | 52 | 1010.0 |
| 20260904045833 | 15 | 247 | 6.4 | 9.7 | 0.00 | 0.00 | 0.00 | 51 | 1009.9 |
| 20260904045328 | 14 | 239 | 3.2 | 6.4 | 0.00 | 0.00 | 0.00 | 54 | 1010.0 |
| 20260904044822 | 13 | 235 | 4.8 | 6.4 | 0.00 | 0.00 | 0.00 | 55 | 1009.9 |
| 20260904044319 | 13 | 255 | 4.8 | 6.4 | 0.00 | 0.00 | 0.00 | 56 | 1009.9 |
| 20260904043815 | 13 | 266 | 6.4 | 8.0 | 0.00 | 0.00 | 0.00 | 55 | 1010.0 |
| 20260904043311 | 13 | 243 | 6.4 | 8.0 | 0.00 | 0.00 | 0.00 | 56 | 1010.0 |
| 20260904042806 | 13 | 281 | 6.4 | 8.0 | 0.00 | 0.00 | 0.00 | 57 | 1010.0 |
| 20260904042306 | 12 | 269 | 6.4 | 8.0 | 0.00 | 0.00 | 0.00 | 58 | 1009.8 |
| 20260904041802 | 12 | 280 | 6.4 | 9.7 | 0.00 | 0.00 | 0.00 | 60 | 1009.6 |
| 20260904041259 | 11 | 294 | 9.7 | 16.1 | 0.00 | 0.00 | 0.00 | 60 | 1009.7 |
| 20260904040753 | 11 | 287 | 12.9 | 19.3 | 0.00 | 0.00 | 0.00 | 61 | 1009.7 |
| 20260904040249 | 11 | 298 | 16.1 | 20.9 | 0.00 | 0.00 | 0.00 | 60 | 1009.6 |
| 20260904035745 | 12 | 293 | 11.3 | 16.1 | 0.00 | 0.00 | 0.00 | 58 | 1009.8 |
| 20260904035241 | 12 | 309 | 6.4 | 12.9 | 0.00 | 0.00 | 0.00 | 58 | 1010.0 |
| 20260904034739 | 12 | 350 | 4.8 | 8.0 | 0.00 | 0.00 | 0.00 | 56 | 1010.1 |
| 20260904034236 | 13 | 343 | 3.2 | 6.4 | 0.00 | 0.00 | 0.00 | 55 | 1009.9 |
| 20260904033731 | 13 | 317 | 1.6 | 6.4 | 0.00 | 0.00 | 0.00 | 55 | 1010.1 |
| 20260904033228 | 13 | 277 | 4.8 | 8.0 | 0.00 | 0.00 | 0.00 | 54 | 1010.1 |
| 20260904032723 | 13 | 299 | 6.4 | 9.7 | 0.00 | 0.00 | 0.00 | 53 | 1010.0 |
| 20260904032222 | 13 | 296 | 9.7 | 12.9 | 0.00 | 0.00 | 0.00 | 53 | 1010.0 |
| 20260904031717 | 13 | 292 | 8.0 | 12.9 | 0.00 | 0.00 | 0.00 | 53 | 1009.9 |
| 20260904031213 | 13 | 296 | 12.9 | 17.7 | 0.00 | 0.00 | 0.00 | 54 | 1009.9 |
| 20260904030708 | 13 | 296 | 9.7 | 19.3 | 0.00 | 0.00 | 0.00 | 54 | 1009.9 |
| 20260904030203 | 13 | 294 | 12.9 | 17.7 | 0.00 | 0.00 | 0.00 | 53 | 1010.0 |
| 20260904025700 | 13 | 285 | 6.4 | 11.3 | 0.00 | 0.00 | 0.00 | 54 | 1009.9 |
| 20260904025154 | 13 | 298 | 8.0 | 9.7 | 0.00 | 0.00 | 0.00 | 52 | 1009.9 |
| 20260904024644 | 14 | 294 | 8.0 | 14.5 | 0.00 | 0.00 | 0.00 | 51 | 1009.6 |
| 20260904024140 | 14 | 304 | 12.9 | 17.7 | 0.00 | 0.00 | 0.00 | 50 | 1009.5 |
| 20260904023635 | 14 | 290 | 14.5 | 19.3 | 0.00 | 0.00 | 0.00 | 50 | 1009.4 |
| 20260904023131 | 13 | 301 | 14.5 | 14.5 | 0.00 | 0.00 | 0.00 | 51 | 1009.5 |
| 20260904022631 | 14 | 300 | 12.9 | 16.1 | 0.00 | 0.00 | 0.00 | 50 | 1009.3 |
| 20260904022128 | 13 | 290 | 9.7 | 9.7 | 0.00 | 0.00 | 0.00 | 52 | 1009.6 |
| 20260904021624 | 14 | 286 | 6.4 | 11.3 | 0.00 | 0.00 | 0.00 | 50 | 1009.3 |
| 20260904021118 | 15 | 293 | 6.4 | 16.1 | 0.00 | 0.00 | 0.00 | 49 | 1009.6 |
| 20260904020614 | 15 | 324 | 11.3 | 14.5 | 0.00 | 0.00 | 0.00 | 47 | 1009.4 |
| 20260904020109 | 16 | 301 | 6.4 | 14.5 | 0.00 | 0.00 | 0.00 | 45 | 1009.3 |
| 20260904015603 | 16 | 330 | 9.7 | 12.9 | 0.00 | 0.00 | 0.00 | 46 | 1009.3 |
| 20260904015101 | 16 | 337 | 6.4 | 9.7 | 0.00 | 0.00 | 0.00 | 45 | 1009.5 |
| 20260904014555 | 17 | 325 | 9.7 | 9.7 | 0.00 | 0.00 | 0.00 | 44 | 1009.4 |
| 20260904014051 | 17 | 302 | 9.7 | 9.7 | 0.00 | 0.00 | 0.00 | 43 | 1009.4 |
| 20260904013548 | 17 | 333 | 9.7 | 11.3 | 0.00 | 0.00 | 0.00 | 42 | 1009.4 |
| 20260904013044 | 18 | 330 | 8.0 | 12.9 | 0.00 | 0.00 | 0.00 | 41 | 1009.4 |
| 20260904012538 | 18 | 323 | 3.2 | 17.7 | 0.00 | 0.00 | 0.00 | 40 | 1009.7 |
| 20260904012037 | 19 | 304 | 17.7 | 20.9 | 0.00 | 0.00 | 0.00 | 39 | 1009.4 |
| 20260904011532 | 20 | 290 | 14.5 | 25.7 | 0.00 | 0.00 | 0.00 | 39 | 1009.3 |
| 20260904011027 | 20 | 308 | 9.7 | 27.4 | 0.00 | 0.00 | 0.00 | 38 | 1009.0 |
| 20260904010524 | 20 | 309 | 17.7 | 27.4 | 0.00 | 0.00 | 0.00 | 37 | 1009.0 |
| 20260904010020 | 20 | 281 | 16.1 | 24.1 | 0.00 | 0.00 | 0.00 | 37 | 1009.1 |
| 20260904005519 | 20 | 294 | 11.3 | 30.6 | 0.00 | 0.00 | 0.00 | 37 | 1009.1 |